WB2COY Weather Reports


Display with metric or nautical units.
time (UTC)temp
F
wind
direction
speed
MPH
gust
MPH
rain 1hr
in
rain 24hr
in
rain mn
in
humidity
%
barometer
mb
20260509023017 47 0.0 0.0 0.00 0.00 0.00 54 1013.1
20260509020016 47 0.0 1.0 0.00 0.00 0.00 55 1012.8
20260509013019 48 0.0 0.0 0.00 0.00 0.00 51 1012.5
20260509010038 50 0.0 0.0 0.00 0.00 0.00 48 1012.0
20260509003018 52 0.0 0.0 0.00 0.00 0.00 42 1011.5
20260509000017 55 0.0 0.0 0.00 0.00 0.00 35 1011.5
20260508233036 56 0.0 0.0 0.00 0.00 0.00 35 1011.0
20260508230038 57 0.0 2.0 0.00 0.00 0.00 32 1010.9
20260508223016 58 45 1.0 5.0 0.00 0.00 0.00 32 1010.8
20260508220016 59 68 1.0 5.0 0.00 0.00 0.00 26 1010.6
20260508213016 59 45 1.0 5.0 0.00 0.00 0.00 34 1010.7
20260508210016 58 45 2.0 7.0 0.00 0.00 0.00 36 1010.9
20260508203016 58 23 2.0 7.0 0.00 0.00 0.00 40 1010.7
20260508200016 58 45 1.0 5.0 0.00 0.00 0.00 41 1010.8
20260508193036 57 23 3.0 9.0 0.00 0.00 0.00 44 1011.1
20260508190036 59 45 3.0 8.0 0.00 0.00 0.00 44 1011.2
20260508183017 61 23 1.0 4.0 0.00 0.00 0.00 41 1011.1
20260508180016 59 315 1.0 6.0 0.00 0.00 0.00 38 1011.2
20260508173016 58 45 1.0 4.0 0.00 0.00 0.00 45 1010.9
20260508170016 56 0.0 3.0 0.00 0.00 0.00 43 1011.3
20260508163016 52 293 1.0 6.0 0.00 0.00 0.00 50 1011.5
20260508160036 55 0.0 4.0 0.00 0.00 0.00 42 1011.6
20260508153016 57 225 1.0 6.0 0.00 0.00 0.00 36 1011.2
20260508150015 56 315 1.0 4.0 0.00 0.00 0.00 38 1011.3
20260508143015 56 203 1.0 4.0 0.00 0.00 0.00 42 1011.7
20260508140015 53 225 1.0 5.0 0.00 0.00 0.00 45 1011.9
20260508133015 52 225 1.0 4.0 0.00 0.00 0.00 50 1012.0
20260508130015 52 0.0 2.0 0.00 0.00 0.00 49 1012.1
20260508123015 54 0.0 2.0 0.00 0.00 0.00 49 1012.3
20260508120137 52 0.0 2.0 0.00 0.00 0.00 53 1012.5
20260508113036 48 0.0 1.0 0.00 0.00 0.00 59 1012.3
20260508110015 45 0.0 2.0 0.00 0.00 0.00 64 1011.9
20260508103016 44 0.0 1.0 0.00 0.00 0.00 64 1011.8
20260508100015 45 0.0 3.0 0.00 0.01 0.00 63 1011.5
20260508093015 45 0.0 2.0 0.00 0.01 0.00 61 1011.3
20260508090015 46 0.0 2.0 0.00 0.01 0.00 60 1011.0
20260508083016 46 0.0 4.0 0.00 0.01 0.00 59 1011.0
20260508080018 47 0.0 1.0 0.00 0.01 0.00 58 1010.9
20260508073020 47 0.0 1.0 0.00 0.01 0.00 56 1011.2
20260508070017 47 0.0 3.0 0.00 0.01 0.00 54 1011.0
20260508063037 48 0.0 5.0 0.00 0.01 0.00 52 1011.0
20260508060016 48 0.0 4.0 0.00 0.01 0.00 50 1011.2
20260508053017 48 0.0 1.0 0.00 0.02 0.00 50 1010.5
20260508050018 48 0.0 0.0 0.00 0.02 0.00 47 1009.9
20260508043017 47 0.0 0.0 0.00 0.02 0.00 50 1010.1
20260508040016 46 0.0 0.0 0.00 0.02 0.02 52 1009.8
20260508033018 46 0.0 0.0 0.00 0.02 0.02 55 1009.9
20260508030038 47 0.0 0.0 0.00 0.02 0.02 52 1009.9